Terminal Aerodrome Forecast
Issued by NWS

Home | Current Version | Previous Version | Text Only | Print | Product List | Glossary On
Versions: 1 2 3 4 5 6 7 8 9 10 11 12 13 14 15
674
FTUS43 KAPX 161228 AAA
TAFTVC
TAF AMD
KTVC 161228Z 1612/1712 00000KT 3SM BR SCT250
      TEMPO 1612/1614 P6SM NSW
     FM161400 22006KT P6SM SCT250
     FM162200 18004KT P6SM BKN100
     FM170100 VRB03KT P6SM VCSH BKN060
     FM170300 VRB03KT P6SM -SN OVC030
     FM170400 VRB03KT 2SM -SNPL OVC010
     FM170700 10005KT 2SM -FZRAPL OVC010
     FM170900 09005KT 2SM -FZRA BR OVC010=

USA.gov is the U.S. government's official web portal to all federal, state and local government web resources and services.